This demonstration page uses our WeatherBlox Daily Observations layout. Learn more.

Left ArrowRight Arrow

39.08367, -84.50855

Hourly Observations for October 15, 2021

Temp ( °F °C ) Dew Point ( °F °C ) Humidity (%) Winds ( mph kmh ) Pressure ( in mb ) Visibility ( mi km ) Precip ( " mm )
12:53 am 00:53 Clear with Mist and Fog 66 18.9 66 18.9 100 100 N N/A 29.90 1013 4 6 N/A
1:53 am 01:53 Clear with Mist and Fog 66 18.9 66 18.9 100 100 N N/A 29.89 1012 5 8 N/A
2:53 am 02:53 Mostly Clear 65 18.3 65 18.3 100 100 N N/A 29.90 1012 7 11 N/A
3:53 am 03:53 Partly Cloudy with Mist and Fog 66 18.9 66 18.9 100 100 N N/A 29.89 1012 5 8 N/A
4:49 am 04:49 Mostly Clear with Mist and Fog 66 19 66 19 100 100 N N/A 29.89 1012 3 4 N/A
4:53 am 04:53 Mostly Clear with Mist and Fog 66 18.9 66 18.9 100 100 N N/A 29.88 1012 3 5 N/A
5:28 am 05:28 Mostly Clear with Mist and Fog 66 18.9 66 18.9 100 100 N N/A 29.88 1012 2 3 N/A
5:53 am 05:53 Clear with Mist and Fog 66 18.9 66 18.9 100 100 N N/A 29.88 1012 6 10 0.00 0.00
6:53 am 06:53 Partly Cloudy 66 18.9 66 18.9 100 100 N N/A 29.88 1012 7 11 N/A
7:53 am 07:53 Partly Cloudy 67 19.4 66 18.9 97 97 N N/A 29.88 1012 10 16 N/A
8:53 am 08:53 Mostly Sunny 69 20.6 67 19.4 93 93 S 5 7 29.88 1012 10 16 N/A
9:53 am 09:53 Mostly Cloudy 72 22.2 67 19.4 84 84 S 8 13 29.88 1012 10 16 N/A
10:53 am 10:53 Cloudy with Light Rain 71 21.7 67 19.4 87 87 S 10 17 29.88 1012 10 16 0.00 0.00
11:53 am 11:53 Cloudy 71 21.7 68 20 90 90 S 9 15 29.89 1012 10 16 0.00 0.00
12:53 pm 12:53 Cloudy with Light Rain 70 21.1 68 20 93 93 S 8 13 29.88 1012 10 16 0.02 0.51
1:05 pm 13:05 Cloudy 70 21.1 69 20.6 97 97 SSW 8 13 29.88 1012 10 16 0.00 0.00
1:17 pm 13:17 Cloudy 71 21.7 69 20.6 94 94 S 7 11 29.88 1012 10 16 0.00 0.00
1:53 pm 13:53 Cloudy with Light Rain 71 21.7 70 21.1 96 96 S 9 15 29.86 1011 6 10 0.04 1.02
2:53 pm 14:53 Cloudy 73 22.8 69 20.6 87 87 SSW 10 17 29.84 1010 10 16 0.00 0.00
3:53 pm 15:53 Cloudy with Light Rain 72 22.2 69 20.6 91 91 S 12 19 29.83 1010 10 16 0.00 0.00
4:53 pm 16:53 Cloudy 71 21.7 69 20.6 94 94 S 8 13 29.82 1010 10 16 0.00 0.00
5:53 pm 17:53 Cloudy 72 22.2 69 20.6 91 91 SSW 8 13 29.82 1010 10 16 0.00 0.00
6:53 pm 18:53 Mostly Cloudy 69 20.6 68 20 96 96 S 6 9 29.80 1009 8 13 N/A
7:53 pm 19:53 Mostly Cloudy 68 20 67 19.4 96 96 N N/A 29.81 1010 10 16 N/A
8:53 pm 20:53 Cloudy 69 20.6 68 20 96 96 N N/A 29.80 1009 10 16 N/A
9:53 pm 21:53 Cloudy 69 20.6 68 20 96 96 SSW 5 7 29.78 1009 10 16 N/A
10:53 pm 22:53 Cloudy 68 20 68 20 100 100 N N/A 29.75 1008 10 16 N/A
11:07 pm 23:07 Cloudy with Nearby Thunderstorms 68 20 68 20 100 100 N N/A 29.76 1008 10 16 N/A
11:38 pm 23:38 Cloudy with Strong Thunderstorms 66 18.9 65 18.3 96 96 NNE 24 39 29.70 1006 3 4 0.10 2.54
11:43 pm 23:43 Cloudy with Strong Thunderstorms 66 18.9 65 18.3 96 96 NW 16 26 29.78 1008 2 3 0.19 4.83
11:50 pm 23:50 Cloudy with Strong Thunderstorms 64 18 64 18 100 100 NW 28 44 29.79 1009 1 1 0.78 19.81
11:53 pm 23:53 Cloudy with Strong Thunderstorms 63 17.2 63 17.2 100 100 N 18 30 29.75 1008 1 1 1.18 29.97
11:57 pm 23:57 Cloudy with Strong Thunderstorms 62 16.7 62 16.7 100 100 N 18 30 29.78 1009 1 1 0.09 2.29

Powered by AerisWeather